Wind_Speed
15 13 12 11 11 10 10 11 12 13 14 16 17 18 20 21 22 23 24 25 26 26 27 27 28 28 28 28 29 29 29 28 28 28 28 28 27 26
16 15 14 13 12 12 12 12 13 14 15 16 17 19 20 21 22 23 24 25 27 28 28 29 29 29 29 29 30 30 30 30 30 29 29 29 28 28
17 16 16 15 14 14 14 14 14 15 16 17 18 19 20 21 22 23 24 25 27 28 29 30 30 30 30 30 31 31 31 31 30 30 31 30 30 29
19 19 18 17 17 16 16 16 16 17 18 19 20 20 21 22 23 23 24 25 27 28 29 30 30 30 31 31 31 31 31 32 31 32 31 31 31 31
21 21 20 20 19 19 19 19 18 19 19 20 21 21 21 22 23 24 24 25 26 27 28 29 30 30 31 31 31 31 31 32 32 32 32 32 32 32
24 23 22 22 21 21 21 21 21 21 21 22 22 22 22 22 23 24 25 26 26 26 27 29 30 31 31 32 32 32 32 32 32 33 33 32 32 32
27 26 25 25 24 24 24 23 24 24 24 24 24 24 24 24 24 25 26 27 27 27 28 29 30 30 31 32 32 32 32 32 33 33 34 33 33 33
30 30 29 28 27 27 27 26 26 26 26 26 26 26 26 26 26 26 27 27 28 29 29 30 31 31 31 32 32 32 32 32 33 33 33 34 34 34
34 33 32 32 30 30 30 30 29 28 28 28 28 28 29 29 28 28 28 28 29 29 30 30 31 32 32 32 33 33 33 33 33 33 33 34 34 34
37 36 35 34 34 33 33 32 32 31 31 31 31 31 31 31 31 30 30 29 29 30 30 30 31 31 32 33 33 33 33 33 33 33 33 33 34 34
38 38 38 37 36 36 35 34 35 35 35 34 34 34 34 33 34 33 32 32 31 31 31 31 31 31 32 32 32 33 33 33 33 33 33 33 33 34
40 40 40 39 38 37 37 36 36 36 37 36 36 36 36 35 36 36 34 34 34 33 32 32 31 31 32 33 33 33 34 33 33 33 33 33 33 33
41 41 40 40 40 39 39 38 37 37 37 38 38 38 38 37 37 38 36 35 35 34 34 33 32 32 32 33 33 33 33 34 34 34 34 33 32 32
42 41 41 40 41 40 40 39 38 38 38 39 39 38 39 39 39 39 38 37 37 36 35 35 34 33 33 33 33 33 33 33 34 34 34 33 33 33
43 42 42 42 41 41 41 41 40 39 39 40 40 40 39 40 40 40 40 39 38 38 37 36 36 35 35 34 34 34 34 33 33 34 34 33 34 34
44 43 43 42 42 41 42 42 42 42 41 41 41 41 41 41 41 41 41 41 40 39 38 38 38 37 37 36 35 35 35 34 34 33 33 34 34 35
45 44 43 42 42 42 42 43 44 44 43 43 42 42 43 42 42 42 42 42 42 41 40 39 39 38 38 37 37 36 35 35 34 34 34 33 33 34
46 45 44 43 43 42 42 42 43 44 43 44 44 43 43 43 42 43 43 43 43 42 41 40 39 39 38 38 37 36 36 36 35 35 34 34 34 34
47 46 45 44 43 42 42 42 42 43 44 44 43 43 44 44 44 44 43 43 43 43 43 41 40 40 39 38 38 38 38 38 37 36 36 35 34 34
48 46 45 44 43 43 43 42 42 42 43 43 42 43 44 45 44 45 44 43 44 44 44 42 41 41 40 39 39 39 38 38 37 36 35 35 34 34
49 47 45 44 43 43 43 42 41 42 42 43 41 42 44 45 45 46 45 44 44 45 45 43 42 41 41 40 40 39 38 38 36 35 35 34 34 34
50 47 45 44 43 44 44 43 42 41 42 43 42 43 45 46 47 46 46 46 45 45 45 45 44 43 41 40 39 39 38 37 36 35 35 35 34 34
49 47 45 43 43 42 44 44 42 42 43 43 44 43 45 47 47 46 47 47 46 46 45 44 44 43 42 41 40 39 38 37 37 36 35 35 34 33
Wind_Direction
330 325 316 305 296 286 276 266 258 248 243 240 238 235 233 232 232 234 233 231 230 229 229 229 228 228 229 230 232 233 232 232 233 234 234 237 239 241
322 319 313 303 294 286 278 271 263 253 247 245 244 242 238 236 235 236 237 234 231 230 231 231 230 230 232 233 233 234 235 235 236 235 235 238 240 240
314 312 308 301 293 285 280 273 266 258 253 249 247 246 242 240 238 237 238 237 233 232 231 231 231 231 233 235 235 235 237 237 237 237 237 239 240 241
309 306 302 299 293 285 279 274 269 263 258 253 250 248 246 245 241 239 239 238 234 233 232 232 232 232 233 235 236 237 238 237 238 239 239 239 240 241
305 302 299 297 292 286 280 275 270 266 261 256 253 250 249 247 244 242 241 239 237 235 234 234 234 233 234 235 236 237 238 238 239 238 238 238 240 241
301 298 296 293 290 286 281 276 271 266 261 257 255 251 248 247 245 243 241 239 238 237 237 236 235 235 236 236 237 238 238 240 239 238 238 240 242 242
297 295 292 290 287 283 279 276 272 267 262 258 255 252 249 249 248 245 242 240 238 238 237 237 236 237 237 237 238 238 239 239 240 240 240 241 243 244
294 291 288 286 283 281 277 274 271 267 262 259 256 252 250 249 248 247 245 243 242 239 238 238 237 238 238 237 237 238 239 240 241 241 242 242 244 246
293 289 286 283 279 277 275 272 270 267 263 260 255 253 250 248 247 246 247 245 244 242 241 240 238 237 238 238 239 239 240 242 243 242 243 243 243 245
292 289 285 282 278 274 271 269 266 265 263 260 256 253 251 249 247 245 245 245 244 242 241 241 240 239 238 237 238 240 240 241 243 243 244 244 245 245
292 289 286 283 279 275 271 269 266 263 261 259 256 253 251 250 248 245 244 244 243 242 241 241 241 241 241 241 240 240 241 242 242 243 244 244 245 246
292 290 286 282 278 274 271 268 266 263 259 257 255 253 251 250 248 246 244 243 242 242 241 241 241 241 241 241 241 242 241 241 241 243 244 245 246 247
293 290 286 281 276 273 271 268 266 262 259 255 254 252 250 250 248 246 244 243 242 241 241 240 241 241 242 241 241 242 242 242 242 243 244 245 245 246
293 289 286 281 276 272 269 267 264 263 259 255 254 251 250 249 247 246 244 243 241 240 239 239 239 240 240 240 240 242 243 243 243 242 243 244 245 246
293 288 285 281 276 272 268 266 263 262 260 255 253 251 250 248 246 245 244 243 241 240 239 240 240 239 240 239 240 241 242 243 243 243 244 245 246 247
292 288 284 281 275 272 270 266 263 262 261 258 254 251 249 248 246 244 243 242 241 240 239 238 239 239 239 239 240 240 241 243 244 244 245 246 247 248
290 288 284 280 275 271 270 267 264 262 260 258 254 251 249 249 246 243 241 241 241 241 241 240 239 239 239 240 240 240 241 242 244 246 247 248 248 249
289 288 284 279 275 271 268 266 264 262 260 257 254 250 247 246 245 242 240 239 239 240 240 240 240 239 239 240 240 240 242 243 244 246 247 248 250 250
290 288 284 279 275 270 267 266 264 262 258 255 253 249 245 243 242 240 238 238 239 239 240 239 239 239 239 239 239 240 242 243 244 246 247 248 249 252
290 288 283 278 274 270 268 267 265 260 256 252 252 248 244 241 239 237 237 238 238 238 238 238 238 238 239 239 239 240 242 243 243 245 247 248 250 252
289 287 282 277 274 270 268 267 265 259 254 251 250 247 243 240 237 235 236 237 236 237 238 238 238 238 238 239 239 241 243 243 244 245 246 248 250 253
289 286 282 276 273 269 267 265 264 258 254 251 249 247 243 239 236 236 236 236 235 235 236 237 237 237 237 238 239 241 242 242 243 245 247 248 250 252
288 285 281 276 272 269 266 264 263 258 254 251 248 245 242 239 237 237 237 235 235 235 235 235 236 236 236 236 237 239 240 242 244 245 246 247 249 251
Height
5806 5804 5802 5801 5800 5800 5800 5801 5801 5802 5803 5804 5805 5806 5808 5809 5812 5814 5816 5818 5821 5824 5827 5830 5832 5835 5838 5841 5844 5846 5849 5852 5855 5857 5860 5862 5865 5867
5803 5802 5800 5799 5798 5797 5797 5797 5797 5798 5799 5800 5801 5802 5803 5805 5806 5808 5811 5813 5815 5818 5821 5823 5826 5829 5832 5835 5838 5840 5843 5845 5848 5851 5854 5856 5859 5861
5800 5798 5797 5795 5794 5794 5793 5793 5793 5794 5794 5795 5796 5797 5798 5799 5801 5802 5804 5806 5809 5812 5814 5817 5820 5823 5826 5828 5831 5834 5836 5839 5841 5844 5847 5850 5852 5854
5796 5794 5792 5791 5790 5789 5789 5789 5789 5789 5789 5790 5790 5791 5792 5793 5795 5796 5798 5800 5802 5805 5807 5810 5813 5816 5819 5822 5824 5827 5829 5832 5835 5837 5840 5842 5845 5847
5791 5789 5787 5786 5785 5784 5783 5783 5783 5783 5783 5784 5785 5785 5786 5787 5788 5790 5792 5793 5795 5798 5800 5803 5806 5809 5812 5814 5817 5819 5822 5825 5827 5830 5832 5835 5837 5840
5784 5783 5781 5780 5779 5778 5777 5777 5776 5776 5777 5777 5778 5779 5780 5781 5782 5783 5785 5787 5789 5791 5793 5796 5798 5801 5804 5807 5809 5812 5814 5817 5819 5822 5825 5827 5829 5832
5777 5775 5774 5772 5771 5770 5770 5769 5769 5769 5769 5770 5771 5772 5773 5774 5775 5776 5778 5780 5781 5783 5786 5788 5791 5793 5796 5799 5801 5804 5806 5809 5811 5814 5817 5819 5821 5824
5768 5767 5765 5763 5762 5761 5761 5760 5760 5760 5761 5762 5763 5764 5766 5767 5768 5769 5770 5772 5774 5776 5778 5780 5783 5785 5788 5790 5793 5796 5798 5800 5803 5805 5808 5810 5813 5815
5757 5756 5754 5753 5752 5751 5751 5750 5750 5751 5751 5752 5754 5755 5757 5758 5759 5761 5762 5764 5766 5767 5770 5772 5774 5777 5780 5782 5785 5787 5789 5792 5794 5797 5799 5802 5804 5807
5745 5743 5742 5741 5740 5739 5739 5739 5739 5740 5740 5742 5743 5745 5746 5747 5749 5751 5753 5755 5757 5759 5761 5763 5766 5768 5771 5773 5776 5778 5781 5783 5786 5788 5791 5793 5796 5798
5731 5729 5728 5727 5726 5725 5725 5726 5727 5728 5728 5730 5731 5733 5735 5737 5738 5741 5743 5746 5748 5750 5752 5755 5757 5759 5762 5765 5767 5770 5772 5775 5777 5780 5782 5784 5787 5789
5718 5716 5713 5712 5711 5710 5710 5711 5713 5714 5715 5717 5719 5721 5723 5725 5727 5730 5733 5735 5738 5741 5743 5745 5748 5750 5753 5756 5758 5761 5763 5766 5768 5771 5773 5775 5778 5780
5704 5702 5699 5697 5696 5696 5695 5697 5698 5699 5701 5702 5705 5708 5711 5713 5716 5719 5722 5725 5728 5731 5734 5736 5739 5741 5744 5747 5749 5752 5755 5757 5760 5762 5764 5766 5769 5771
5689 5687 5684 5682 5682 5681 5681 5682 5683 5685 5686 5688 5691 5695 5698 5701 5704 5707 5710 5713 5717 5720 5723 5726 5729 5731 5735 5737 5740 5743 5745 5748 5750 5753 5755 5757 5759 5762
5674 5672 5670 5668 5667 5668 5668 5668 5669 5670 5672 5674 5677 5681 5684 5688 5691 5694 5698 5701 5705 5708 5712 5715 5718 5721 5724 5727 5731 5733 5736 5738 5741 5743 5746 5748 5750 5753
5660 5658 5656 5654 5653 5653 5654 5654 5655 5656 5657 5660 5663 5667 5670 5673 5677 5681 5685 5689 5693 5697 5700 5704 5707 5710 5714 5717 5720 5723 5726 5729 5732 5734 5736 5739 5740 5743
5646 5644 5642 5640 5639 5639 5639 5639 5640 5641 5642 5645 5648 5651 5655 5659 5663 5667 5672 5676 5681 5685 5689 5692 5695 5699 5703 5706 5710 5713 5716 5719 5722 5724 5727 5729 5731 5733
5631 5629 5627 5625 5624 5624 5624 5624 5624 5625 5627 5629 5633 5636 5640 5644 5649 5653 5658 5663 5668 5673 5677 5681 5684 5688 5692 5696 5699 5703 5706 5709 5711 5714 5716 5719 5720 5722
5616 5613 5611 5609 5608 5608 5608 5609 5610 5611 5612 5614 5617 5620 5624 5629 5634 5639 5644 5650 5655 5660 5665 5668 5672 5677 5681 5685 5689 5692 5695 5698 5701 5703 5706 5708 5710 5712
5601 5597 5595 5593 5593 5592 5593 5593 5594 5595 5597 5599 5602 5605 5609 5614 5619 5625 5631 5636 5642 5647 5651 5656 5661 5665 5670 5674 5677 5681 5684 5687 5690 5693 5695 5698 5700 5702
5585 5581 5579 5578 5577 5577 5577 5577 5578 5580 5582 5584 5587 5590 5594 5599 5604 5610 5616 5622 5627 5633 5639 5644 5648 5653 5657 5662 5666 5670 5673 5676 5679 5682 5685 5687 5689 5691
5569 5565 5563 5562 5561 5561 5561 5562 5562 5564 5566 5569 5572 5576 5580 5584 5590 5596 5602 5608 5613 5620 5626 5631 5635 5640 5645 5650 5655 5658 5662 5665 5669 5671 5674 5677 5679 5681
5553 5550 5547 5546 5545 5545 5545 5546 5547 5549 5551 5554 5557 5560 5565 5570 5575 5581 5587 5593 5600 5605 5611 5617 5622 5628 5633 5638 5643 5647 5650 5654 5658 5661 5664 5666 5668 5670